Zim Pacific — A8OZ4 — position and weather

sailwx.info

Track history (hours):
 
Tides and Currents Weather Stations Pressure Air Temp Water Temp Dewpoint Dewpoint Depression Visibility Wind Speed Wind Dir Waves Ship Positions

Zim Pacific

Last reported at 2014-Oct-28 09:17 UTC. Time now 2014-Oct-31 07:07 UTC.
Position N 22°18' E 114°06'.

Length 254 m; draft 10.4 m.

Type: Ship. MMSI: 636016512.

Date/timePositionNaut miles runAvg speedWind from/ knotsBaromVisibWave heightAir tempDewpointWater temp
2014-Oct-28 09:17N 22°18' E 114°06'1011.9
2014-Oct-28 08:25N 22°22' E 113°55'1011.3
2014-Oct-28 07:33N 22°31' E 113°51'1 0.6
2014-Oct-28 05:26N 22°32' E 113°51'0 0.0
2014-Oct-28 04:19N 22°32' E 113°51'0 0.0
2014-Oct-28 03:31N 22°32' E 113°51'3 0.4
2014-Oct-27 18:25N 22°29' E 113°52'6 6.9
2014-Oct-27 17:33N 22°23' E 113°54'161 8.8
2014-Oct-26 23:10N 22°48' E 116°46'37 8.0
2014-Oct-26 18:33N 23°04' E 117°22'1 1.3
2014-Oct-26 17:33N 23°04' E 117°24'1 0.6
2014-Oct-26 16:33N 23°04' E 117°24'6 4.8
2014-Oct-26 15:14N 23°10' E 117°22'2 1.0
2014-Oct-26 13:25N 23°09' E 117°22'1 1.0
2014-Oct-26 12:32N 23°08' E 117°23'1 1.0
2014-Oct-26 11:32N 23°07' E 117°24'1 1.2
2014-Oct-26 10:33N 23°08' E 117°25'2 1.5
2014-Oct-26 09:33N 23°08' E 117°26'8 7.7
2014-Oct-26 08:33N 23°14' E 117°32'2013.6
2014-Oct-26 07:04N 23°26' E 117°49'2013.0
2014-Oct-26 05:33N 23°35' E 118°09'1312.5
2014-Oct-26 04:29N 23°44' E 118°19'1212.2
2014-Oct-26 03:31N 23°51' E 118°30'1815.7
2014-Oct-26 02:23N 24°02' E 118°45'1111.4
2014-Oct-26 01:27N 24°09' E 118°54'1011.5
2014-Oct-26 00:34N 24°16' E 119°03'1211.7
2014-Oct-25 23:31N 24°23' E 119°13'1111.8
2014-Oct-25 22:33N 24°31' E 119°23'1511.3
2014-Oct-25 21:12N 24°40' E 119°36'711.3
2014-Oct-25 20:33N 24°45' E 119°42'1411.2
2014-Oct-25 19:16N 24°54' E 119°54'811.2
2014-Oct-25 18:33N 24°59' E 120°01'28011.5
2014-Oct-24 18:15N 29°04' E 122°33'1111.9
2014-Oct-24 17:20N 29°15' E 122°32'912.1
2014-Oct-24 16:33N 29°24' E 122°29'1211.8
2014-Oct-24 15:33N 29°36' E 122°26'1010.1
2014-Oct-24 14:33N 29°44' E 122°20'8 8.2
2014-Oct-24 13:34N 29°50' E 122°13'9 9.2
2014-Oct-24 12:34N 29°54' E 122°03'1 0.5
2014-Oct-24 11:18N 29°53' E 122°03'0 0.0
2014-Oct-24 10:06N 29°53' E 122°03'0 0.0
2014-Oct-24 09:22N 29°53' E 122°03'0 0.0
2014-Oct-24 08:14N 29°53' E 122°03'0 0.0
2014-Oct-24 07:25N 29°53' E 122°03'0 0.0
2014-Oct-24 06:29N 29°53' E 122°03'0 0.0
2014-Oct-24 05:28N 29°53' E 122°03'0 0.0
2014-Oct-24 04:28N 29°53' E 122°03'0 0.0
2014-Oct-24 03:33N 29°53' E 122°03'3 2.6
2014-Oct-24 02:33N 29°55' E 122°06'9 9.3
2014-Oct-24 01:33N 29°49' E 122°14'9 8.6
2014-Oct-24 00:33N 29°44' E 122°22'8 8.1
2014-Oct-23 23:33N 29°44' E 122°32'9 8.1
2014-Oct-23 22:24N 29°44' E 122°42'102 6.8
2014-Oct-23 07:19N 31°16' E 121°51'1114.1
2014-Oct-23 06:33N 31°21' E 121°40'4 3.6
2014-Oct-23 05:28N 31°22' E 121°36'0 0.0
2014-Oct-23 04:33N 31°22' E 121°36'0 0.0
2014-Oct-23 02:32N 31°22' E 121°36'0 0.0
2014-Oct-23 01:10N 31°22' E 121°36'0 0.0
2014-Oct-23 00:33N 31°22' E 121°36'0 0.0
2014-Oct-22 23:30N 31°22' E 121°36'0 0.0
2014-Oct-22 22:17N 31°22' E 121°36'0 0.0
2014-Oct-22 21:28N 31°22' E 121°36'0 0.0
2014-Oct-22 19:25N 31°22' E 121°36'0 0.0
2014-Oct-22 18:16N 31°22' E 121°36'0 0.0
2014-Oct-22 17:28N 31°22' E 121°36'0 0.0
2014-Oct-22 16:16N 31°22' E 121°36'0 0.0
2014-Oct-22 14:32N 31°22' E 121°36'0 0.0
2014-Oct-22 13:32N 31°22' E 121°36'0 0.0
2014-Oct-22 12:27N 31°22' E 121°36'0 0.0
2014-Oct-22 11:30N 31°22' E 121°36'0 0.0
2014-Oct-22 10:32N 31°22' E 121°36'0 0.0
2014-Oct-22 09:19N 31°22' E 121°36'0 0.0
2014-Oct-22 08:10N 31°22' E 121°36'1 1.4
2014-Oct-22 07:33N 31°22' E 121°37'10 8.5
2014-Oct-22 06:22N 31°18' E 121°47'36 8.9
2014-Oct-22 02:15N 31°06' E 122°28'29 1.5
2014-Oct-21 06:31N 31°03' E 123°02'18 9.4
2014-Oct-21 04:33N 30°49' E 123°15'1311.5
2014-Oct-21 03:24N 30°36' E 123°13'1012.0
2014-Oct-21 02:33N 30°25' E 123°12'1211.9
2014-Oct-21 01:33N 30°14' E 123°10'1313.1
2014-Oct-21 00:33N 30°00' E 123°09'1313.2
2014-Oct-20 23:32N 29°48' E 123°05'1713.2
2014-Oct-20 22:13N 29°31' E 122°60'36611.8
2014-Oct-19 15:08N 24°29' E 119°06'4011.1
2014-Oct-19 11:31N 24°13' E 118°27'1010.7
2014-Oct-19 10:33N 24°15' E 118°15'1110.5
2014-Oct-19 09:32N 24°23' E 118°08'9 9.0
2014-Oct-19 08:30N 24°27' E 117°59'0 0.1
2014-Oct-19 07:29N 24°27' E 117°59'0 0.0
2014-Oct-19 06:29N 24°27' E 117°59'0 0.0
2014-Oct-19 03:09N 24°27' E 117°59'0 0.0
2014-Oct-19 01:26N 24°27' E 117°59'0 0.0
2014-Oct-19 00:10N 24°27' E 117°59'0 0.0
2014-Oct-18 23:28N 24°27' E 117°59'0 0.0
2014-Oct-18 22:09N 24°27' E 117°59'0 0.0
2014-Oct-18 21:08N 24°27' E 117°59'0 0.0
2014-Oct-18 20:33N 24°27' E 117°59'0 0.0
2014-Oct-18 19:32N 24°27' E 117°59'0 0.0
2014-Oct-18 18:29N 24°27' E 117°59'2 1.7
2014-Oct-18 17:33N 24°27' E 118°00'10 9.7
2014-Oct-18 16:32N 24°21' E 118°09'1010.1
2014-Oct-18 15:33N 24°14' E 118°16'5 4.4
2014-Oct-18 14:30N 24°13' E 118°22'0 0.0
2014-Oct-18 09:21N 24°13' E 118°21'  
Track history (hours):
 
Tides and Currents Weather Stations Pressure Air Temp Water Temp Dewpoint Dewpoint Depression Visibility Wind Speed Wind Dir Waves Ship Positions

Zim Pacific

Last reported at 2014-Oct-28 09:17 UTC. Time now 2014-Oct-31 07:07 UTC.
Position N 22°18' E 114°06'.

Length 254 m; draft 10.4 m.

Type: Ship. MMSI: 636016512.

Date/timePositionNaut miles runAvg speedWind from/ knotsBaromVisibWave heightAir tempDewpointWater temp
2014-Oct-28 09:17N 22°18' E 114°06'1011.9
2014-Oct-28 08:25N 22°22' E 113°55'1011.3
2014-Oct-28 07:33N 22°31' E 113°51'1 0.6
2014-Oct-28 05:26N 22°32' E 113°51'0 0.0
2014-Oct-28 04:19N 22°32' E 113°51'0 0.0
2014-Oct-28 03:31N 22°32' E 113°51'3 0.4
2014-Oct-27 18:25N 22°29' E 113°52'6 6.9
2014-Oct-27 17:33N 22°23' E 113°54'161 8.8
2014-Oct-26 23:10N 22°48' E 116°46'37 8.0
2014-Oct-26 18:33N 23°04' E 117°22'1 1.3
2014-Oct-26 17:33N 23°04' E 117°24'1 0.6
2014-Oct-26 16:33N 23°04' E 117°24'6 4.8
2014-Oct-26 15:14N 23°10' E 117°22'2 1.0
2014-Oct-26 13:25N 23°09' E 117°22'1 1.0
2014-Oct-26 12:32N 23°08' E 117°23'1 1.0
2014-Oct-26 11:32N 23°07' E 117°24'1 1.2
2014-Oct-26 10:33N 23°08' E 117°25'2 1.5
2014-Oct-26 09:33N 23°08' E 117°26'8 7.7
2014-Oct-26 08:33N 23°14' E 117°32'2013.6
2014-Oct-26 07:04N 23°26' E 117°49'2013.0
2014-Oct-26 05:33N 23°35' E 118°09'1312.5
2014-Oct-26 04:29N 23°44' E 118°19'1212.2
2014-Oct-26 03:31N 23°51' E 118°30'1815.7
2014-Oct-26 02:23N 24°02' E 118°45'1111.4
2014-Oct-26 01:27N 24°09' E 118°54'1011.5
2014-Oct-26 00:34N 24°16' E 119°03'1211.7
2014-Oct-25 23:31N 24°23' E 119°13'1111.8
2014-Oct-25 22:33N 24°31' E 119°23'1511.3
2014-Oct-25 21:12N 24°40' E 119°36'711.3
2014-Oct-25 20:33N 24°45' E 119°42'1411.2
2014-Oct-25 19:16N 24°54' E 119°54'811.2
2014-Oct-25 18:33N 24°59' E 120°01'28011.5
2014-Oct-24 18:15N 29°04' E 122°33'1111.9
2014-Oct-24 17:20N 29°15' E 122°32'912.1
2014-Oct-24 16:33N 29°24' E 122°29'1211.8
2014-Oct-24 15:33N 29°36' E 122°26'1010.1
2014-Oct-24 14:33N 29°44' E 122°20'8 8.2
2014-Oct-24 13:34N 29°50' E 122°13'9 9.2
2014-Oct-24 12:34N 29°54' E 122°03'1 0.5
2014-Oct-24 11:18N 29°53' E 122°03'0 0.0
2014-Oct-24 10:06N 29°53' E 122°03'0 0.0
2014-Oct-24 09:22N 29°53' E 122°03'0 0.0
2014-Oct-24 08:14N 29°53' E 122°03'0 0.0
2014-Oct-24 07:25N 29°53' E 122°03'0 0.0
2014-Oct-24 06:29N 29°53' E 122°03'0 0.0
2014-Oct-24 05:28N 29°53' E 122°03'0 0.0
2014-Oct-24 04:28N 29°53' E 122°03'0 0.0
2014-Oct-24 03:33N 29°53' E 122°03'3 2.6
2014-Oct-24 02:33N 29°55' E 122°06'9 9.3
2014-Oct-24 01:33N 29°49' E 122°14'9 8.6
2014-Oct-24 00:33N 29°44' E 122°22'8 8.1
2014-Oct-23 23:33N 29°44' E 122°32'9 8.1
2014-Oct-23 22:24N 29°44' E 122°42'102 6.8
2014-Oct-23 07:19N 31°16' E 121°51'1114.1
2014-Oct-23 06:33N 31°21' E 121°40'4 3.6
2014-Oct-23 05:28N 31°22' E 121°36'0 0.0
2014-Oct-23 04:33N 31°22' E 121°36'0 0.0
2014-Oct-23 02:32N 31°22' E 121°36'0 0.0
2014-Oct-23 01:10N 31°22' E 121°36'0 0.0
2014-Oct-23 00:33N 31°22' E 121°36'0 0.0
2014-Oct-22 23:30N 31°22' E 121°36'0 0.0
2014-Oct-22 22:17N 31°22' E 121°36'0 0.0
2014-Oct-22 21:28N 31°22' E 121°36'0 0.0
2014-Oct-22 19:25N 31°22' E 121°36'0 0.0
2014-Oct-22 18:16N 31°22' E 121°36'0 0.0
2014-Oct-22 17:28N 31°22' E 121°36'0 0.0
2014-Oct-22 16:16N 31°22' E 121°36'0 0.0
2014-Oct-22 14:32N 31°22' E 121°36'0 0.0
2014-Oct-22 13:32N 31°22' E 121°36'0 0.0
2014-Oct-22 12:27N 31°22' E 121°36'0 0.0
2014-Oct-22 11:30N 31°22' E 121°36'0 0.0
2014-Oct-22 10:32N 31°22' E 121°36'0 0.0
2014-Oct-22 09:19N 31°22' E 121°36'0 0.0
2014-Oct-22 08:10N 31°22' E 121°36'1 1.4
2014-Oct-22 07:33N 31°22' E 121°37'10 8.5
2014-Oct-22 06:22N 31°18' E 121°47'36 8.9
2014-Oct-22 02:15N 31°06' E 122°28'29 1.5
2014-Oct-21 06:31N 31°03' E 123°02'18 9.4
2014-Oct-21 04:33N 30°49' E 123°15'1311.5
2014-Oct-21 03:24N 30°36' E 123°13'1012.0
2014-Oct-21 02:33N 30°25' E 123°12'1211.9
2014-Oct-21 01:33N 30°14' E 123°10'1313.1
2014-Oct-21 00:33N 30°00' E 123°09'1313.2
2014-Oct-20 23:32N 29°48' E 123°05'1713.2
2014-Oct-20 22:13N 29°31' E 122°60'36611.8
2014-Oct-19 15:08N 24°29' E 119°06'4011.1
2014-Oct-19 11:31N 24°13' E 118°27'1010.7
2014-Oct-19 10:33N 24°15' E 118°15'1110.5
2014-Oct-19 09:32N 24°23' E 118°08'9 9.0
2014-Oct-19 08:30N 24°27' E 117°59'0 0.1
2014-Oct-19 07:29N 24°27' E 117°59'0 0.0
2014-Oct-19 06:29N 24°27' E 117°59'0 0.0
2014-Oct-19 03:09N 24°27' E 117°59'0 0.0
2014-Oct-19 01:26N 24°27' E 117°59'0 0.0
2014-Oct-19 00:10N 24°27' E 117°59'0 0.0
2014-Oct-18 23:28N 24°27' E 117°59'0 0.0
2014-Oct-18 22:09N 24°27' E 117°59'0 0.0
2014-Oct-18 21:08N 24°27' E 117°59'0 0.0
2014-Oct-18 20:33N 24°27' E 117°59'0 0.0
2014-Oct-18 19:32N 24°27' E 117°59'0 0.0
2014-Oct-18 18:29N 24°27' E 117°59'2 1.7
2014-Oct-18 17:33N 24°27' E 118°00'10 9.7
2014-Oct-18 16:32N 24°21' E 118°09'1010.1
2014-Oct-18 15:33N 24°14' E 118°16'5 4.4
2014-Oct-18 14:30N 24°13' E 118°22'0 0.0
2014-Oct-18 09:21N 24°13' E 118°21'  

Dump ship's entire track history